Location: Mentone
(34.5413°N, 85.5351°W)
Time: 22:37:24
(UTC-05:00)

Amateur Radio Satellites - All Passes

Search period start: 17 September 2014 22:07
Search period end: 18 September 2014 22:07
Location: Mentone, 34.5413°N, 85.5351°W

Satellite Date Start Highest point End Downlink Frequencies (MHz)
Time Altitude Azimuth
Sapphire 17 Sep 22:11:21 22:16:48 75° 63° (ENE) 22:22:12 437.095 MHz 1200 baud AX-25 AFSK
HO-68 17 Sep 22:29:04 22:33:56 20° 266° (W) 22:38:50 435.675 MHz FM
FUNcube-1 17 Sep 22:38:12 22:42:28 59° 260° (W) 22:46:53 145.950 - 145.970 MHz USB
PCSat 17 Sep 22:38:44 22:44:03 56° 248° (WSW) 22:49:18 145.825 MHz
Oscar 11 17 Sep 22:56:22 22:58:38 14° 267° (W) 23:00:55 145.825 FM, Beacon 2401.500 USB
SO-50 17 Sep 23:26:35 23:30:34 31° 306° (NW) 23:34:39 436.795 FM
UOSAT-12 17 Sep 23:35:39 23:39:19 24° 111° (ESE) 23:43:03 437.025 FM, 437.400 FM
Sapphire 17 Sep 23:57:53 23:59:29 11° 258° (WSW) 00:01:06 437.095 MHz 1200 baud AX-25 AFSK
UOSAT-12 18 Sep 01:15:10 01:19:16 31° 306° (NW) 01:23:28 437.025 FM, 437.400 FM
Oscar 19 18 Sep 01:33:28 01:37:56 29° 97° (E) 01:42:20 437.125 CW, 437.150 USB
AO-27 18 Sep 01:47:39 01:50:48 16° 93° (E) 01:53:57 436.795 MHz FM
PANSAT 18 Sep 02:06:37 02:09:30 20° 165° (SSE) 02:12:22 not established
JAS-1B 18 Sep 02:07:25 02:12:19 29° 97° (E) 02:17:14 435.800 - 435.900 CW/SSB
Oscar 16 18 Sep 02:11:23 02:16:35 75° 102° (ESE) 02:21:43 437.025 USB, Beacon 2401.1428
ISS 18 Sep 02:13:21 02:16:16 29° 131° (SE) 02:19:12 145.800 FM
Gurwin Techsat 1B 18 Sep 02:29:07 02:32:52 19° 94° (E) 02:36:36 435.225 FM
AO-Echo 18 Sep 02:39:29 02:44:19 67° 102° (ESE) 02:49:17 ?
Saudisat 1A 18 Sep 02:50:34 02:54:59 79° 61° (ENE) 02:59:23 436.775 MHz
ITAMSAT 1 18 Sep 02:50:50 02:56:03 72° 102° (ESE) 03:01:15 435.822 SSB
Uribyol 2 18 Sep 02:55:31 03:00:46 86° 103° (ESE) 03:06:00 436.500 FM
KITSAT 1 18 Sep 02:59:10 03:02:55 14° 37° (NE) 03:06:38 435.175 FM
TMSAT-1 18 Sep 03:06:34 03:11:20 33° 97° (E) 03:16:05 436.925 FM
Oscar 19 18 Sep 03:12:48 03:17:08 28° 291° (WNW) 03:21:27 437.125 CW, 437.150 USB
Oscar 10/S400 18 Sep 03:21:30 04:33:38 26° 249° (WSW) 07:34:15 145.825 - 145.975 CW/USB, Beacon 145.810 USB
RS-15 18 Sep 03:22:51 03:32:39 38° 107° (ESE) 03:42:14 29.354 - 29.394 USB, Beacon 29.352 USB
AO-27 18 Sep 03:25:30 03:30:32 50° 287° (WNW) 03:35:33 436.795 MHz FM
AO-7 18 Sep 03:41:49 03:47:27 20° 94° (E) 03:53:02 29.400 - 29.500 MHz
OPAL 18 Sep 03:45:41 03:49:58 27° 66° (ENE) 03:54:17 ?
PANSAT 18 Sep 03:45:47 03:49:14 32° 177° (S) 03:52:41 not established
ISS 18 Sep 03:50:14 03:52:59 23° 326° (NW) 03:55:44 145.800 FM
Uosat F 18 Sep 03:50:22 03:52:29 13° 92° (E) 03:54:36 435.120 FM
Oscar 16 18 Sep 03:53:35 03:55:14 12° 297° (WNW) 03:56:53 437.025 USB, Beacon 2401.1428
JAS-1B 18 Sep 03:58:08 04:02:57 29° 293° (WNW) 04:07:45 435.800 - 435.900 CW/SSB
Gurwin Techsat 1B 18 Sep 04:07:58 04:12:58 43° 288° (WNW) 04:17:57 435.225 FM
AO-Echo 18 Sep 04:20:54 04:22:32 12° 295° (WNW) 04:24:11 ?
ITAMSAT 1 18 Sep 04:32:52 04:34:52 12° 297° (WNW) 04:36:53 435.822 SSB
Uribyol 2 18 Sep 04:39:03 04:39:28 10° 298° (WNW) 04:39:52 436.500 FM
TMSAT-1 18 Sep 04:46:45 04:51:03 26° 292° (WNW) 04:55:21 436.925 FM
KITSAT 1 18 Sep 04:52:06 05:00:06 61° 59° (ENE) 05:08:02 435.175 FM
OPAL 18 Sep 05:24:08 05:28:40 31° 261° (W) 05:33:17 ?
PANSAT 18 Sep 05:25:46 05:29:02 26° 190° (S) 05:32:17 not established
Uosat F 18 Sep 05:26:39 05:31:35 59° 286° (WNW) 05:36:31 435.120 FM
AO-7 18 Sep 05:32:33 05:40:48 74° 290° (WNW) 05:49:03 29.400 - 29.500 MHz
RS-15 18 Sep 05:33:44 05:44:30 55° 306° (NW) 05:55:10 29.354 - 29.394 USB, Beacon 29.352 USB
STRAND 1 18 Sep 06:02:23 06:06:46 30° 69° (ENE) 06:11:11 ?
Hamsat 18 Sep 06:06:11 06:10:07 36° 98° (E) 06:14:00 145.90 MHz
SO-50 18 Sep 06:22:56 06:24:18 11° 44° (NE) 06:25:40 436.795 FM
JAS-2 18 Sep 06:35:21 06:41:27 83° 103° (ESE) 06:48:23 435.800 - 435.900 CW/SSB, 435.910 FM
KITSAT 1 18 Sep 06:48:38 06:54:52 25° 256° (WSW) 07:01:05 435.175 FM
PANSAT 18 Sep 07:07:10 07:08:39 12° 202° (SSW) 07:10:08 not established
SO-67 18 Sep 07:12:08 07:15:00 24° 96° (E) 07:17:51 435.3500 MHz FM
AO-7 18 Sep 07:28:25 07:32:11 14° 308° (NW) 07:35:57 29.400 - 29.500 MHz
STRAND 1 18 Sep 07:41:42 07:45:54 26° 264° (W) 07:50:07 ?
Hamsat 18 Sep 07:43:15 07:45:44 15° 292° (WNW) 07:48:12 145.90 MHz
RS-15 18 Sep 07:53:57 08:00:06 16° 334° (NNW) 08:06:18 29.354 - 29.394 USB, Beacon 29.352 USB
SO-50 18 Sep 08:00:41 08:05:32 86° 61° (ENE) 08:10:25 436.795 FM
MaSat-1 18 Sep 08:08:18 08:13:03 47° 108° (ESE) 08:17:52 437.345 MHz
UOSAT-12 18 Sep 08:10:29 08:11:21 10° 44° (NE) 08:12:13 437.025 FM, 437.400 FM
HO-68 18 Sep 08:13:23 08:16:30 13° 91° (E) 08:19:36 435.675 MHz FM
JAS-2 18 Sep 08:23:07 08:25:58 14° 296° (WNW) 08:28:57 435.800 - 435.900 CW/SSB, 435.910 FM
SO-67 18 Sep 08:45:54 08:47:46 14° 290° (WNW) 08:49:39 435.3500 MHz FM
ISS 18 Sep 08:45:54 08:47:13 12° 26° (NNE) 08:48:32 145.800 FM
UKube-1 18 Sep 09:25:06 09:28:23 21° 96° (E) 09:31:39 145.840 MHz, 145.915 MHz
MaSat-1 18 Sep 09:46:25 09:50:03 20° 303° (WNW) 09:53:39 437.345 MHz
UOSAT-12 18 Sep 09:47:29 09:52:13 85° 61° (ENE) 09:56:51 437.025 FM, 437.400 FM
HO-68 18 Sep 09:57:41 10:04:54 88° 286° (WNW) 10:12:05 435.675 MHz FM
RS-15 18 Sep 10:15:56 10:19:37 12° 13° (NNE) 10:23:19 29.354 - 29.394 USB, Beacon 29.352 USB
ISS 18 Sep 10:21:03 10:24:23 85° 45° (NE) 10:27:41 145.800 FM
FUNcube-1 18 Sep 10:31:00 10:35:15 35° 98° (E) 10:39:25 145.950 - 145.970 MHz USB
Oscar 11 18 Sep 10:45:12 10:49:28 57° 285° (WNW) 10:53:42 145.825 FM, Beacon 2401.500 USB
UKube-1 18 Sep 11:00:49 11:04:32 28° 290° (WNW) 11:08:14 145.840 MHz, 145.915 MHz
Sapphire 18 Sep 11:08:53 11:12:00 16° 104° (ESE) 11:15:07 437.095 MHz 1200 baud AX-25 AFSK
PCSat 18 Sep 11:34:14 11:38:55 31° 108° (ESE) 11:43:38 145.825 MHz
HO-68 18 Sep 11:47:58 11:51:34 15° 303° (WNW) 11:55:11 435.675 MHz FM
FUNcube-1 18 Sep 12:08:06 12:11:19 19° 292° (WNW) 12:14:31 145.950 - 145.970 MHz USB
RS-15 18 Sep 12:27:02 12:36:55 35° 46° (NE) 12:47:05 29.354 - 29.394 USB, Beacon 29.352 USB
Oscar 19 18 Sep 12:46:59 12:51:27 30° 69° (ENE) 12:55:57 437.125 CW, 437.150 USB
JAS-1B 18 Sep 12:47:41 12:54:31 27° 66° (ENE) 13:00:31 435.800 - 435.900 CW/SSB
Sapphire 18 Sep 12:49:34 12:54:52 57° 299° (WNW) 13:00:12 437.095 MHz 1200 baud AX-25 AFSK
AO-27 18 Sep 13:02:42 13:06:07 18° 66° (ENE) 13:09:32 436.795 MHz FM
PCSat 18 Sep 13:17:31 13:22:15 31° 304° (NW) 13:27:01 145.825 MHz
Oscar 16 18 Sep 13:24:43 13:29:53 76° 75° (ENE) 13:35:05 437.025 USB, Beacon 2401.1428
Oscar 10/S400 18 Sep 13:36:40 13:56:59 25° 151° (SSE) 14:11:29 145.825 - 145.975 CW/USB, Beacon 145.810 USB
Gurwin Techsat 1B 18 Sep 13:46:56 13:50:58 23° 67° (ENE) 13:55:00 435.225 FM
AO-Echo 18 Sep 13:49:14 13:53:55 58° 75° (ENE) 13:58:33 ?
ITAMSAT 1 18 Sep 14:05:21 14:10:29 76° 75° (ENE) 14:15:40 435.822 SSB
Uribyol 2 18 Sep 14:09:53 14:15:02 90° 76° (ENE) 14:20:15 436.500 FM
TMSAT-1 18 Sep 14:23:56 14:28:44 37° 71° (ENE) 14:33:34 436.925 FM
Oscar 19 18 Sep 14:26:21 14:30:42 27° 264° (W) 14:35:06 437.125 CW, 437.150 USB
JAS-1B 18 Sep 14:35:48 14:44:42 60° 258° (WSW) 14:52:15 435.800 - 435.900 CW/SSB
AO-7 18 Sep 14:37:41 14:43:35 22° 57° (ENE) 14:49:28 29.400 - 29.500 MHz
RS-15 18 Sep 14:38:56 14:49:57 66° 247° (WSW) 15:01:28 29.354 - 29.394 USB, Beacon 29.352 USB
AO-27 18 Sep 14:40:16 14:45:13 47° 260° (W) 14:50:12 436.795 MHz FM
Uosat F 18 Sep 15:00:50 15:03:05 13° 64° (ENE) 15:05:19 435.120 FM
Gurwin Techsat 1B 18 Sep 15:25:44 15:30:39 38° 262° (W) 15:35:35 435.225 FM
AO-Echo 18 Sep 15:31:36 15:33:00 11° 268° (W) 15:34:23 ?
TMSAT-1 18 Sep 16:04:37 16:08:42 23° 265° (W) 16:12:48 436.925 FM
AO-7 18 Sep 16:27:12 16:35:30 76° 254° (WSW) 16:43:50 29.400 - 29.500 MHz
Uosat F 18 Sep 16:36:21 16:41:17 62° 258° (WSW) 16:46:15 435.120 FM
JAS-2 18 Sep 16:46:45 16:50:29 20° 67° (ENE) 16:54:09 435.800 - 435.900 CW/SSB, 435.910 FM
Saudisat 1A 18 Sep 16:53:39 16:57:51 47° 115° (ESE) 17:02:05 436.775 MHz
Hamsat 18 Sep 16:56:51 16:59:51 18° 69° (ENE) 17:02:50 145.90 MHz
RS-15 18 Sep 16:59:38 17:00:16 10° 263° (W) 17:00:53 29.354 - 29.394 USB, Beacon 29.352 USB
OPAL 18 Sep 17:36:56 17:42:07 87° 285° (WNW) 17:47:12 ?
MaSat-1 18 Sep 18:05:31 18:09:00 36° 62° (ENE) 18:12:00 437.345 MHz
STRAND 1 18 Sep 18:17:57 18:20:23 13° 93° (E) 18:22:49 ?
AO-7 18 Sep 18:27:38 18:29:21 11° 270° (W) 18:31:04 29.400 - 29.500 MHz
JAS-2 18 Sep 18:30:19 18:35:21 39° 261° (W) 18:40:11 435.800 - 435.900 CW/SSB, 435.910 FM
Hamsat 18 Sep 18:31:37 18:35:32 32° 263° (W) 18:39:28 145.90 MHz
Saudisat 1A 18 Sep 18:34:51 18:37:40 16° 311° (NW) 18:40:29 436.775 MHz
SO-67 18 Sep 19:13:43 19:17:09 76° 258° (WSW) 19:20:37 435.3500 MHz FM
KITSAT 1 18 Sep 19:15:50 19:23:50 69° 113° (ESE) 19:31:51 435.175 FM
STRAND 1 18 Sep 19:54:51 19:59:53 58° 286° (WNW) 20:04:55 ?
UKube-1 18 Sep 20:18:56 20:20:43 12° 65° (ENE) 20:22:29 145.840 MHz, 145.915 MHz
HO-68 18 Sep 20:22:14 20:29:01 49° 69° (ENE) 20:35:49 435.675 MHz FM
PCSat 18 Sep 20:26:45 20:29:29 14° 48° (NE) 20:32:12 145.825 MHz
KITSAT 1 18 Sep 21:13:20 21:19:50 26° 312° (NW) 21:26:22 435.175 FM
FUNcube-1 18 Sep 21:24:51 21:27:55 19° 68° (ENE) 21:31:02 145.950 - 145.970 MHz USB
Oscar 11 18 Sep 21:36:21 21:40:40 69° 76° (ENE) 21:45:02 145.825 FM, Beacon 2401.500 USB
Sapphire 18 Sep 21:41:01 21:46:20 53° 61° (ENE) 21:51:36 437.095 MHz 1200 baud AX-25 AFSK
UKube-1 18 Sep 21:52:15 21:56:26 49° 260° (W) 22:00:39 145.840 MHz, 145.915 MHz
